Location: Wiesbaden
(50.0830°N, 8.2500°E)
Time: 20:07:53
(UTC+02:00)

ISS - Pass Details

Date: 16 July 2019
Orbit: 409 x 418 km, 51.6° (Epoch: 20 July)

Event Time Altitude Azimuth Distance (km) Brightness Sun altitude
Rises 03:06:32 0° 282° (WNW) 2,349 -0.1 -15.5°
Reaches altitude 10° 03:08:38 10° 284° (WNW) 1,484 -1.1 -15.4°
Maximum altitude 03:11:58 72° 9° (N) 436 -3.6 -15.2°
Drops below altitude 10° 03:15:16 10° 95° (E) 1,478 -0.7 -15.0°
Sets 03:17:22 0° 98° (E) 2,337 0.3 -14.8°
